Regional Weather Roundup
Issued by NWS

Home | Current Version | Previous Version | Graphics & Text | Print | Product List | Glossary On
Versions: 1 2 3 4 5 6 7 8 9 10 11 12 13 14 15 16 17 18 19 20 21 22 23 24 25 26 27 28 29 30 31 32 33 34 35 36 37 38 39 40 41 42 43 44 45 46 47 48 49
000
ASUS45 KCYS 190410
RWRWY

WYOMING REGIONAL WEATHER ROUNDUP
NATIONAL WEATHER SERVICE CHEYENNE WY
1000 PM MDT SAT APR 18 2015

NOTE:  "FAIR" INDICATES FEW OR NO CLOUDS BELOW 12,000 FEET
WITH NO SIGNIFICANT WEATHER AND/OR OBSTRUCTIONS TO VISIBILITY.

WYZ001-190500-
YELLOWSTONE NATIONAL PARK

CITY           SKY/WX    TMP DP  RH WIND       PRES   REMARKS
LK YELLOWSTONE   N/A     32  19  58 CALM      30.21R
W YELLOWSTONE  NOT AVBL

$$
WYZ002>013-054>058-071-098>099-190500-
NORTHERN WYOMING

CITY           SKY/WX    TMP DP  RH WIND       PRES   REMARKS
JACKSON        FAIR      43  25  49 N17       30.11R
CODY           CLOUDY    37  34  87 N10       30.24R WCI  30
GREYBULL       CLOUDY    47  24  40 N25G32    30.15R
WORLAND        CLOUDY    46  27  47 NW22      30.14R
SHERIDAN       CLOUDY    41  32  70 NW15      30.21S
BUFFALO        MOCLDY    39  32  76 NW28G39   30.17R WCI  28
GILLETTE       CLOUDY    43  32  65 N24G35    30.11R
HULETT         CLOUDY    45  32  61 NW15G26   30.09R
NEWCASTLE      DRIZZLE   41  37  87 N16G28    30.02F

$$
WYZ014>020-022>026-101>103-190500-
CENTRAL WYOMING

CITY           SKY/WX    TMP DP  RH WIND       PRES   REMARKS
BIG PINEY      CLOUDY    43  28  55 S6        30.10R
PINEDALE       MOCLDY    41  27  56 SE5       30.09R
DUBOIS         MOCLDY    36  28  75 SE6       30.12R WCI  31
LANDER         CLOUDY    44  30  57 NE12      30.14R
RIVERTON       CLOUDY    41  29  62 N24       30.15R
CASPER         CLOUDY    39  35  86 N10       30.12R WCI  32
DOUGLAS        LGT RAIN  39  38  96 NW15      30.07S WCI  31

$$
WYZ021-027>030-104>119-190500-
SOUTHERN WYOMING

CITY           SKY/WX    TMP DP  RH WIND       PRES   REMARKS
EVANSTON       FAIR      44  21  40 N12       30.08R
KEMMERER       CLOUDY    43  32  65 SE5       30.12R
FORT BRIDGER   PTCLDY    43  36  75 SE20      30.12R
ROCK SPRINGS   CLOUDY    39  34  82 SE15      30.11R WCI  31
DIXON          FAIR      38  33  83 N6        30.10R WCI  33
RAWLINS        CLOUDY    35  35 100 NW7       30.10R WCI  29
SARATOGA       CLOUDY    34  32  93 NW9       30.08S WCI  26
LARAMIE        CLOUDY    33  31  92 N8        30.03R WCI  26
CHEYENNE       FAIR      37  31  78 N15       29.98R WCI  28
TORRINGTON     CLOUDY    43  38  82 NW12      29.97S
PINE BLUFFS    FAIR      37  36  93 N16G22    29.97S WCI  28

$$



USA.gov is the U.S. government's official web portal to all federal, state and local government web resources and services.